STARLINK-2426, 47836

Orbit data source: Space-Track

STARLINK-2426, 47836 is a payload satellite owned by SpaceX/Seattle (US) in LEO that was launched on Thu, 11 Mar 2021 UTC via an FALCON 9 launch vehicle from the Air Force Eastern Test Range (AFETR). Payload-class satellites include a variety of spacecraft equipped with specific instruments for various scientific and technological missions. These include communications satellites like Starlink; space stations such as the ISS; scientific satellites like the Hubble; Earth observation satellites from companies like Planet Labs, Umbra, and HawkEye 360; GPS; miniature CubeSats for education and research; and military/defense satellites.

Loading next visibility...
Identifier
47836, 2021-018BB
Orbit
LEO
Country
Flag of USUS
Related business
Manufacturer
SpaceX/Seattle
Mission
Operational Commercial Communications
Bus & Motor
STARLINK, Unknown motor
Mass
260 kg wet, ~248 kg dry
Launch date (UTC)
2021-03-11 (5 years ago)
Launch vehicle
FALCON 9
Launch site
Air Force Eastern Test Range (AFETR)
Object type
Payload
Rocket body
Debris
Shape & HBR
Box + 1 Pan, 10.1 m
Radar Cross Section
13.562 m², Large (>1 m²)

Expand to show TLE details & history
Last TLE update: 12 hours ago

TLE from 12 hours ago
0 STARLINK-2426
1 47836U 21018BB  26248.07115837 -.00000205  00000-0  51474-5 0  9998
2 47836  53.1591 130.2206 0001358  82.1136 278.0020 15.31695705304183
Epoch: 2026-09-05T01:42Z
TLE epoch observation values (Epoch: 2026-09-05T01:42:28.083Z)
Latitude
0.00003°
Longitude
120.41772°
Altitude
471.524 km
Speed
7.632 km/s
True Right ascension
08h 40m 52s
True Declination
0° 00' 00"
Sunlit
Object was in daylight at epoch
Visualization orbit readout
Latitude
Unknown
Longitude
Unknown
Altitude
Unknown
Speed
Unknown
Apparent Right ascension
Unknown
Apparent Declination
Unknown
Sunlit
N/A
Visualization observer readout
Local Sidereal Time
05:57:04
Azimuth
Unknown
Elevation
Unknown
Doppler factor
Unknown
Orbital elements
Apogee altitude
471.94 km
Perigee altitude
470.079 km
Semi-major axis
6,849.147 km
Eccentricity
0.00014
Inclination
53.1591°
RAAN
130.2206°
Arg. of periapsis
82.1136°
True anomaly
277.98659°
Mean anomaly
278.002°
Eccentric anomaly
277.99429°
Mean motion
3.82903 °/min
Orbital period
94.02 mins
BSTAR
0.0000051474
Loading maneuver chart data...
Computing Atmospheric mass density...
Loading historical data...
Loading historical data...
Loading historical data...
Loading historical data...
Loading historical data...
Loading historical data...
Loading historical data...

Documentation

Showing up to 5 results
|